Time,TemperatureF,DewpointF,PressureIn,WindDirection,WindDirectionDegrees,WindSpeedMPH,WindSpeedGustMPH,Humidity,HourlyPrecipIn,Conditions,Clouds,dailyrainin,SoftwareType,DateUTC
2013-03-26 00:00:00,34.1,27.3,29.76,WNW,283,0.0,0.0,76,0.00,,,0.00,Wunderground v.1.15,2013-03-26 04:00:00,
2013-03-26 00:05:00,34.1,27.6,29.76,WNW,283,0.0,0.0,77,0.00,,,0.00,Wunderground v.1.15,2013-03-26 04:05:00,
2013-03-26 00:10:00,34.1,27.6,29.76,WNW,283,0.0,0.0,77,0.00,,,0.00,Wunderground v.1.15,2013-03-26 04:10:00,
2013-03-26 00:20:00,34.1,27.6,29.76,WNW,283,0.0,0.0,77,0.00,,,0.00,Wunderground v.1.15,2013-03-26 04:20:00,
2013-03-26 00:25:00,34.1,28.0,29.76,WNW,283,0.0,0.0,78,0.00,,,0.00,Wunderground v.1.15,2013-03-26 04:25:00,
2013-03-26 00:35:00,34.2,28.4,29.76,SW,236,0.0,0.0,79,0.00,,,0.00,Wunderground v.1.15,2013-03-26 04:35:00,
2013-03-26 00:45:00,34.2,28.4,29.77,SW,235,0.0,0.0,79,0.00,,,0.00,Wunderground v.1.15,2013-03-26 04:45:00,
2013-03-26 00:55:00,34.1,28.3,29.77,SW,235,0.0,0.0,79,0.00,,,0.00,Wunderground v.1.15,2013-03-26 04:55:00,
2013-03-26 01:05:00,34.0,28.5,29.77,SW,235,0.0,0.0,80,0.00,,,0.00,Wunderground v.1.15,2013-03-26 05:05:00,
2013-03-26 01:10:00,33.8,28.3,29.77,West,271,0.0,0.0,80,0.00,,,0.00,Wunderground v.1.15,2013-03-26 05:10:00,
2013-03-26 01:15:00,33.7,28.5,29.77,West,261,0.0,0.0,81,0.00,,,0.00,Wunderground v.1.15,2013-03-26 05:15:00,
2013-03-26 01:25:00,33.5,28.3,29.77,West,267,0.0,0.0,81,0.00,,,0.00,Wunderground v.1.15,2013-03-26 05:25:00,
2013-03-26 01:35:00,33.4,28.5,29.77,West,269,0.0,0.0,82,0.00,,,0.00,Wunderground v.1.15,2013-03-26 05:35:00,
2013-03-26 01:40:00,33.3,28.4,29.77,West,269,0.0,1.0,82,0.00,,,0.00,Wunderground v.1.15,2013-03-26 05:40:00,
2013-03-26 01:45:00,33.2,28.3,29.77,WSW,256,0.0,1.0,82,0.00,,,0.00,Wunderground v.1.15,2013-03-26 05:45:00,
2013-03-26 01:50:00,33.2,28.3,29.77,WNW,290,0.0,0.0,82,0.00,,,0.00,Wunderground v.1.15,2013-03-26 05:50:00,
2013-03-26 02:01:00,33.0,28.4,29.77,West,275,0.0,0.0,83,0.00,,,0.00,Wunderground v.1.15,2013-03-26 06:01:00,
2013-03-26 02:10:00,32.6,28.0,29.78,West,269,0.0,0.0,83,0.00,,,0.00,Wunderground v.1.15,2013-03-26 06:10:00,
2013-03-26 02:15:00,32.4,27.8,29.78,West,268,0.0,0.0,83,0.00,,,0.00,Wunderground v.1.15,2013-03-26 06:15:00,
2013-03-26 02:25:00,31.8,27.2,29.78,West,269,0.0,0.0,83,0.00,,,0.00,Wunderground v.1.15,2013-03-26 06:25:00,
2013-03-26 02:35:00,31.5,27.5,29.78,West,268,0.0,0.0,85,0.00,,,0.00,Wunderground v.1.15,2013-03-26 06:35:00,
2013-03-26 02:40:00,31.5,27.8,29.78,West,260,0.0,0.0,86,0.00,,,0.00,Wunderground v.1.15,2013-03-26 06:40:00,
2013-03-26 02:50:00,31.9,27.9,29.78,WSW,248,0.0,0.0,85,0.00,,,0.00,Wunderground v.1.15,2013-03-26 06:50:00,
2013-03-26 03:00:00,32.3,28.0,29.78,WSW,256,0.0,0.0,84,0.00,,,0.00,Wunderground v.1.15,2013-03-26 07:00:00,
2013-03-26 03:10:00,32.8,28.2,29.78,SW,224,0.0,1.0,83,0.00,,,0.00,Wunderground v.1.15,2013-03-26 07:10:00,
2013-03-26 03:20:00,33.0,28.1,29.78,SW,219,0.0,0.0,82,0.00,,,0.00,Wunderground v.1.15,2013-03-26 07:20:00,
2013-03-26 03:30:00,33.1,27.9,29.78,NW,319,0.0,2.0,81,0.00,,,0.00,Wunderground v.1.15,2013-03-26 07:30:00,
2013-03-26 03:40:00,33.1,27.9,29.78,SW,217,0.0,0.0,81,0.00,,,0.00,Wunderground v.1.15,2013-03-26 07:40:00,
2013-03-26 03:50:00,32.9,27.7,29.78,SW,222,0.0,0.0,81,0.00,,,0.00,Wunderground v.1.15,2013-03-26 07:50:00,
2013-03-26 04:00:00,32.5,27.3,29.78,SW,222,0.0,0.0,81,0.00,,,0.00,Wunderground v.1.15,2013-03-26 08:00:00,
2013-03-26 04:05:00,32.4,27.5,29.78,WSW,238,0.0,0.0,82,0.00,,,0.00,Wunderground v.1.15,2013-03-26 08:05:00,
2013-03-26 04:15:00,32.3,27.4,29.78,WSW,257,0.0,0.0,82,0.00,,,0.00,Wunderground v.1.15,2013-03-26 08:15:00,
2013-03-26 04:20:00,32.3,27.4,29.78,WSW,257,0.0,0.0,82,0.00,,,0.00,Wunderground v.1.15,2013-03-26 08:20:00,
2013-03-26 04:25:00,32.2,27.3,29.78,WSW,237,0.0,0.0,82,0.00,,,0.00,Wunderground v.1.15,2013-03-26 08:25:00,
2013-03-26 04:35:00,32.3,27.4,29.78,SW,215,0.0,0.0,82,0.00,,,0.00,Wunderground v.1.15,2013-03-26 08:35:00,
2013-03-26 04:45:00,32.4,27.5,29.78,SW,218,0.0,0.0,82,0.00,,,0.00,Wunderground v.1.15,2013-03-26 08:45:00,
2013-03-26 04:55:00,32.4,27.5,29.78,SW,218,0.0,0.0,82,0.00,,,0.00,Wunderground v.1.15,2013-03-26 08:55:00,
2013-03-26 05:01:00,32.5,27.6,29.79,WSW,242,0.0,0.0,82,0.00,,,0.00,Wunderground v.1.15,2013-03-26 09:01:00,
2013-03-26 05:10:00,32.5,27.6,29.79,SW,226,0.0,0.0,82,0.00,,,0.00,Wunderground v.1.15,2013-03-26 09:10:00,
2013-03-26 05:20:00,32.8,27.9,29.79,SW,236,0.0,1.0,82,0.00,,,0.00,Wunderground v.1.15,2013-03-26 09:20:00,
2013-03-26 05:30:00,32.9,28.0,29.79,West,268,0.0,0.0,82,0.00,,,0.00,Wunderground v.1.15,2013-03-26 09:30:00,
2013-03-26 05:40:00,33.1,27.9,29.80,South,191,0.0,1.0,81,0.00,,,0.00,Wunderground v.1.15,2013-03-26 09:40:00,
2013-03-26 05:50:00,33.4,28.2,29.80,WSW,249,0.0,1.0,81,0.00,,,0.00,Wunderground v.1.15,2013-03-26 09:50:00,
2013-03-26 06:00:00,33.5,28.3,29.80,SW,221,0.0,0.0,81,0.00,,,0.00,Wunderground v.1.15,2013-03-26 10:00:00,
2013-03-26 06:10:00,33.3,28.1,29.80,SSW,198,0.0,0.0,81,0.00,,,0.00,Wunderground v.1.15,2013-03-26 10:10:00,
2013-03-26 06:15:00,33.2,28.0,29.80,SW,215,0.0,0.0,81,0.00,,,0.00,Wunderground v.1.15,2013-03-26 10:15:00,
2013-03-26 06:25:00,33.2,28.0,29.80,West,262,0.0,1.0,81,0.00,,,0.00,Wunderground v.1.15,2013-03-26 10:25:00,
2013-03-26 06:30:00,33.2,28.3,29.80,SW,221,0.0,0.0,82,0.00,,,0.00,Wunderground v.1.15,2013-03-26 10:30:00,
2013-03-26 06:35:00,33.2,28.0,29.80,SSW,204,0.0,1.0,81,0.00,,,0.00,Wunderground v.1.15,2013-03-26 10:35:00,
2013-03-26 06:45:00,33.2,28.3,29.81,SW,236,0.0,0.0,82,0.00,,,0.00,Wunderground v.1.15,2013-03-26 10:45:00,
2013-03-26 06:50:00,33.2,28.3,29.81,SW,231,0.0,0.0,82,0.00,,,0.00,Wunderground v.1.15,2013-03-26 10:50:00,
2013-03-26 06:55:00,33.2,28.3,29.81,SW,235,0.0,0.0,82,0.00,,,0.00,Wunderground v.1.15,2013-03-26 10:55:00,
2013-03-26 07:05:00,33.2,28.3,29.81,SW,236,0.0,1.0,82,0.00,,,0.00,Wunderground v.1.15,2013-03-26 11:05:00,
2013-03-26 07:10:00,33.2,28.3,29.81,SW,236,0.0,0.0,82,0.00,,,0.00,Wunderground v.1.15,2013-03-26 11:10:00,
2013-03-26 07:15:00,33.2,28.6,29.82,South,190,0.0,0.0,83,0.00,,,0.00,Wunderground v.1.15,2013-03-26 11:15:00,
2013-03-26 07:25:00,33.2,28.6,29.82,SW,232,0.0,0.0,83,0.00,,,0.00,Wunderground v.1.15,2013-03-26 11:25:00,
2013-03-26 07:30:00,33.3,28.7,29.82,SW,231,0.0,0.0,83,0.00,,,0.00,Wunderground v.1.15,2013-03-26 11:30:00,
2013-03-26 07:35:00,33.3,28.7,29.82,SW,232,0.0,0.0,83,0.00,,,0.00,Wunderground v.1.15,2013-03-26 11:35:00,
2013-03-26 07:45:00,33.4,28.8,29.83,WSW,240,0.0,0.0,83,0.00,,,0.00,Wunderground v.1.15,2013-03-26 11:45:00,
2013-03-26 07:55:00,33.7,29.1,29.83,SSW,203,0.0,0.0,83,0.00,,,0.00,Wunderground v.1.15,2013-03-26 11:55:00,
2013-03-26 08:05:00,34.2,29.3,29.83,SW,226,0.0,1.0,82,0.00,,,0.00,Wunderground v.1.15,2013-03-26 12:05:00,
2013-03-26 08:10:00,34.4,29.5,29.83,South,181,1.0,1.0,82,0.00,,,0.00,Wunderground v.1.15,2013-03-26 12:10:00,
2013-03-26 08:20:00,34.7,29.5,29.84,SW,219,0.0,2.0,81,0.00,,,0.00,Wunderground v.1.15,2013-03-26 12:20:00,
2013-03-26 08:30:00,35.0,29.5,29.84,SSW,195,1.0,1.0,80,0.00,,,0.00,Wunderground v.1.15,2013-03-26 12:30:00,
2013-03-26 08:35:00,35.2,29.6,29.84,SSW,207,1.0,1.0,80,0.00,,,0.00,Wunderground v.1.15,2013-03-26 12:35:00,
2013-03-26 08:45:00,35.5,29.6,29.84,SW,236,0.0,1.0,79,0.00,,,0.00,Wunderground v.1.15,2013-03-26 12:45:00,
2013-03-26 08:50:00,35.7,29.8,29.84,SW,221,0.0,1.0,79,0.00,,,0.00,Wunderground v.1.15,2013-03-26 12:50:00,
2013-03-26 09:00:00,35.9,29.7,29.84,SW,225,1.0,1.0,78,0.00,,,0.00,Wunderground v.1.15,2013-03-26 13:00:00,
2013-03-26 09:05:00,36.2,30.0,29.84,SW,228,1.0,1.0,78,0.00,,,0.00,Wunderground v.1.15,2013-03-26 13:05:00,
2013-03-26 09:10:00,36.3,30.1,29.85,WSW,242,0.0,1.0,78,0.00,,,0.00,Wunderground v.1.15,2013-03-26 13:10:00,
2013-03-26 09:20:00,36.7,30.2,29.85,WSW,239,1.0,1.0,77,0.00,,,0.00,Wunderground v.1.15,2013-03-26 13:20:00,
2013-03-26 09:30:00,36.7,30.2,29.85,SW,235,1.0,1.0,77,0.00,,,0.00,Wunderground v.1.15,2013-03-26 13:30:00,
2013-03-26 09:40:00,37.0,30.5,29.86,West,264,1.0,1.0,77,0.00,,,0.00,Wunderground v.1.15,2013-03-26 13:40:00,
2013-03-26 09:50:00,37.5,30.3,29.86,SW,225,0.0,0.0,75,0.00,,,0.00,Wunderground v.1.15,2013-03-26 13:50:00,
2013-03-26 10:00:00,37.9,30.4,29.86,WSW,238,1.0,1.0,74,0.00,,,0.00,Wunderground v.1.15,2013-03-26 14:00:00,
2013-03-26 10:05:00,38.1,30.5,29.86,South,191,1.0,1.0,74,0.00,,,0.00,Wunderground v.1.15,2013-03-26 14:05:00,
2013-03-26 10:10:00,38.3,30.4,29.86,WSW,257,0.0,1.0,73,0.00,,,0.00,Wunderground v.1.15,2013-03-26 14:10:00,
2013-03-26 10:20:00,39.1,30.8,29.87,West,267,1.0,1.0,72,0.00,,,0.00,Wunderground v.1.15,2013-03-26 14:20:00,
2013-03-26 10:30:00,39.5,30.9,29.87,SW,229,1.0,1.0,71,0.00,,,0.00,Wunderground v.1.15,2013-03-26 14:30:00,
2013-03-26 10:35:00,39.9,31.3,29.87,SW,231,1.0,1.0,71,0.00,,,0.00,Wunderground v.1.15,2013-03-26 14:35:00,
2013-03-26 10:45:00,40.7,31.3,29.88,North,4,0.0,2.0,69,0.00,,,0.00,Wunderground v.1.15,2013-03-26 14:45:00,
2013-03-26 10:50:00,41.2,29.9,29.87,NE,47,1.0,1.0,64,0.00,,,0.00,Wunderground v.1.15,2013-03-26 14:50:00,
2013-03-26 10:55:00,41.3,30.0,29.88,NNE,12,2.0,3.0,64,0.00,,,0.00,Wunderground v.1.15,2013-03-26 14:55:00,
2013-03-26 11:01:00,41.5,29.8,29.88,SSW,211,3.0,3.0,63,0.00,,,0.00,Wunderground v.1.15,2013-03-26 15:01:00,
2013-03-26 11:10:00,42.7,30.6,29.88,NNW,338,1.0,4.0,62,0.00,,,0.00,Wunderground v.1.15,2013-03-26 15:10:00,
2013-03-26 11:20:00,43.0,29.6,29.88,NNE,26,3.0,7.0,59,0.00,,,0.00,Wunderground v.1.15,2013-03-26 15:20:00,
2013-03-26 11:25:00,42.7,29.8,29.88,NE,42,3.0,7.0,60,0.00,,,0.00,Wunderground v.1.15,2013-03-26 15:25:00,
2013-03-26 11:35:00,42.9,30.0,29.88,NNW,329,3.0,3.0,60,0.00,,,0.00,Wunderground v.1.15,2013-03-26 15:35:00,
2013-03-26 11:45:00,43.8,30.4,29.89,North,359,2.0,2.0,59,0.00,,,0.00,Wunderground v.1.15,2013-03-26 15:45:00,
2013-03-26 11:55:00,44.0,30.6,29.89,WNW,285,3.0,3.0,59,0.00,,,0.00,Wunderground v.1.15,2013-03-26 15:55:00,
2013-03-26 12:05:00,45.0,30.7,29.89,NW,316,2.0,3.0,57,0.00,,,0.00,Wunderground v.1.15,2013-03-26 16:05:00,
2013-03-26 12:15:00,45.8,30.1,29.88,NNE,27,3.0,6.0,54,0.00,,,0.00,Wunderground v.1.15,2013-03-26 16:15:00,
2013-03-26 12:20:00,45.8,30.1,29.88,NNE,23,2.0,3.0,54,0.00,,,0.00,Wunderground v.1.15,2013-03-26 16:20:00,
2013-03-26 12:30:00,45.9,29.7,29.88,NNE,32,3.0,3.0,53,0.00,,,0.00,Wunderground v.1.15,2013-03-26 16:30:00,
2013-03-26 12:35:00,45.8,30.1,29.88,NE,41,2.0,3.0,54,0.00,,,0.00,Wunderground v.1.15,2013-03-26 16:35:00,
2013-03-26 12:45:00,46.4,31.1,29.88,WNW,283,2.0,3.0,55,0.00,,,0.00,Wunderground v.1.15,2013-03-26 16:45:00,
2013-03-26 12:55:00,45.9,29.7,29.88,NE,42,2.0,3.0,53,0.00,,,0.00,Wunderground v.1.15,2013-03-26 16:55:00,
2013-03-26 13:05:00,46.1,29.9,29.88,SW,226,2.0,2.0,53,0.00,,,0.00,Wunderground v.1.15,2013-03-26 17:05:00,
2013-03-26 13:10:00,46.5,30.3,29.88,SSE,151,2.0,2.0,53,0.00,,,0.00,Wunderground v.1.15,2013-03-26 17:10:00,
2013-03-26 13:15:00,46.5,32.9,29.88,NE,51,2.0,2.0,59,0.00,,,0.00,Wunderground v.1.15,2013-03-26 17:15:00,
2013-03-26 13:25:00,46.5,31.2,29.88,West,269,1.0,3.0,55,0.00,,,0.00,Wunderground v.1.15,2013-03-26 17:25:00,
2013-03-26 13:35:00,46.6,33.9,29.89,SW,216,3.0,3.0,61,0.00,,,0.00,Wunderground v.1.15,2013-03-26 17:35:00,
2013-03-26 13:45:00,46.0,33.7,29.89,WSW,247,3.0,4.0,62,0.00,,,0.00,Wunderground v.1.15,2013-03-26 17:45:00,
2013-03-26 13:50:00,45.8,33.5,29.89,WSW,242,3.0,3.0,62,0.00,,,0.00,Wunderground v.1.15,2013-03-26 17:50:00,
2013-03-26 14:00:00,45.9,33.6,29.89,SW,233,4.0,4.0,62,0.00,,,0.00,Wunderground v.1.15,2013-03-26 18:00:00,
2013-03-26 14:10:00,47.4,33.8,29.88,SSW,212,2.0,2.0,59,0.00,,,0.00,Wunderground v.1.15,2013-03-26 18:10:00,
2013-03-26 14:20:00,46.1,33.4,29.88,SW,234,3.0,3.0,61,0.00,,,0.00,Wunderground v.1.15,2013-03-26 18:20:00,
2013-03-26 14:30:00,45.5,33.6,29.89,SSW,211,3.0,3.0,63,0.00,,,0.00,Wunderground v.1.15,2013-03-26 18:30:00,
2013-03-26 14:35:00,45.2,33.3,29.89,West,262,2.0,3.0,63,0.00,,,0.00,Wunderground v.1.15,2013-03-26 18:35:00,
2013-03-26 14:45:00,44.7,33.3,29.89,SSW,205,3.0,4.0,64,0.00,,,0.00,Wunderground v.1.15,2013-03-26 18:45:00,
2013-03-26 14:50:00,44.0,33.4,29.88,SSE,160,3.0,3.0,66,0.00,,,0.00,Wunderground v.1.15,2013-03-26 18:50:00,
2013-03-26 15:00:00,44.3,33.3,29.88,SW,235,4.0,5.0,65,0.00,,,0.00,Wunderground v.1.15,2013-03-26 19:00:00,
2013-03-26 15:05:00,44.1,33.1,29.88,SW,219,4.0,5.0,65,0.00,,,0.00,Wunderground v.1.15,2013-03-26 19:05:00,
2013-03-26 15:15:00,44.4,33.4,29.88,SW,231,3.0,4.0,65,0.00,,,0.00,Wunderground v.1.15,2013-03-26 19:15:00,
2013-03-26 15:20:00,44.2,32.8,29.88,SW,218,3.0,6.0,64,0.00,,,0.00,Wunderground v.1.15,2013-03-26 19:20:00,
2013-03-26 15:25:00,43.7,33.1,29.88,SSW,201,4.0,6.0,66,0.00,,,0.00,Wunderground v.1.15,2013-03-26 19:25:00,
2013-03-26 15:35:00,43.6,33.0,29.88,SSE,158,3.0,6.0,66,0.00,,,0.00,Wunderground v.1.15,2013-03-26 19:35:00,
2013-03-26 15:40:00,43.4,32.8,29.89,WSW,238,4.0,6.0,66,0.00,,,0.00,Wunderground v.1.15,2013-03-26 19:40:00,
2013-03-26 15:50:00,42.2,32.8,29.88,SW,232,4.0,5.0,69,0.00,,,0.00,Wunderground v.1.15,2013-03-26 19:50:00,
2013-03-26 16:00:00,41.3,32.6,29.89,WSW,243,4.0,4.0,71,0.00,,,0.00,Wunderground v.1.15,2013-03-26 20:00:00,
2013-03-26 16:05:00,41.0,32.7,29.89,WSW,245,4.0,10.0,72,0.00,,,0.00,Wunderground v.1.15,2013-03-26 20:05:00,
2013-03-26 16:10:00,41.1,32.8,29.89,West,269,4.0,4.0,72,0.00,,,0.00,Wunderground v.1.15,2013-03-26 20:10:00,
2013-03-26 16:20:00,41.5,32.8,29.90,South,190,3.0,3.0,71,0.00,,,0.00,Wunderground v.1.15,2013-03-26 20:20:00,
2013-03-26 16:30:00,42.6,33.5,29.90,SW,235,4.0,4.0,70,0.00,,,0.00,Wunderground v.1.15,2013-03-26 20:30:00,
2013-03-26 16:40:00,42.3,33.2,29.90,SSW,198,4.0,6.0,70,0.00,,,0.00,Wunderground v.1.15,2013-03-26 20:40:00,
2013-03-26 16:50:00,42.2,33.8,29.89,WSW,239,4.0,4.0,72,0.00,,,0.00,Wunderground v.1.15,2013-03-26 20:50:00,
2013-03-26 17:00:00,43.1,34.0,29.89,SSE,166,3.0,3.0,70,0.00,,,0.00,Wunderground v.1.15,2013-03-26 21:00:00,
2013-03-26 17:10:00,43.6,33.7,29.89,West,276,3.0,4.0,68,0.00,,,0.00,Wunderground v.1.15,2013-03-26 21:10:00,
2013-03-26 17:15:00,43.4,33.9,29.90,SW,221,4.0,4.0,69,0.00,,,0.00,Wunderground v.1.15,2013-03-26 21:15:00,
2013-03-26 17:25:00,42.4,33.7,29.90,SW,225,3.0,5.0,71,0.00,,,0.00,Wunderground v.1.15,2013-03-26 21:25:00,
2013-03-26 17:35:00,41.9,33.5,29.90,SW,235,3.0,3.0,72,0.00,,,0.00,Wunderground v.1.15,2013-03-26 21:35:00,
2013-03-26 17:45:00,41.4,33.7,29.90,SW,221,3.0,5.0,74,0.00,,,0.00,Wunderground v.1.15,2013-03-26 21:45:00,
2013-03-26 17:55:00,41.3,33.3,29.90,SSW,195,2.0,3.0,73,0.00,,,0.00,Wunderground v.1.15,2013-03-26 21:55:00,
2013-03-26 18:05:00,40.7,32.7,29.90,WSW,249,2.0,2.0,73,0.00,,,0.00,Wunderground v.1.15,2013-03-26 22:05:00,
2013-03-26 18:10:00,40.7,32.7,29.90,SSW,208,1.0,1.0,73,0.00,,,0.00,Wunderground v.1.15,2013-03-26 22:10:00,
2013-03-26 18:20:00,40.7,32.7,29.90,SW,226,1.0,1.0,73,0.00,,,0.00,Wunderground v.1.15,2013-03-26 22:20:00,
2013-03-26 18:25:00,40.9,32.2,29.91,SSW,205,1.0,1.0,71,0.00,,,0.00,Wunderground v.1.15,2013-03-26 22:25:00,
2013-03-26 18:35:00,41.1,31.7,29.91,WSW,239,1.0,1.0,69,0.00,,,0.00,Wunderground v.1.15,2013-03-26 22:35:00,
2013-03-26 18:40:00,41.2,32.2,29.91,SSW,210,1.0,1.0,70,0.00,,,0.00,Wunderground v.1.15,2013-03-26 22:40:00,
2013-03-26 18:50:00,40.7,32.0,29.91,SSW,194,1.0,1.0,71,0.00,,,0.00,Wunderground v.1.15,2013-03-26 22:50:00,
2013-03-26 19:00:00,40.6,31.9,29.91,SSW,197,1.0,2.0,71,0.00,,,0.00,Wunderground v.1.15,2013-03-26 23:00:00,
2013-03-26 19:10:00,40.7,31.3,29.92,WSW,243,1.0,1.0,69,0.00,,,0.00,Wunderground v.1.15,2013-03-26 23:10:00,
2013-03-26 19:20:00,40.9,31.1,29.92,WSW,256,1.0,1.0,68,0.00,,,0.00,Wunderground v.1.15,2013-03-26 23:20:00,
2013-03-26 19:25:00,41.0,31.2,29.92,SW,218,0.0,1.0,68,0.00,,,0.00,Wunderground v.1.15,2013-03-26 23:25:00,
2013-03-26 19:35:00,41.1,30.6,29.92,WSW,256,0.0,1.0,66,0.00,,,0.00,Wunderground v.1.15,2013-03-26 23:35:00,
2013-03-26 19:40:00,41.1,30.6,29.92,WSW,238,0.0,0.0,66,0.00,,,0.00,Wunderground v.1.15,2013-03-26 23:40:00,
2013-03-26 19:50:00,41.1,30.2,29.93,SW,230,0.0,0.0,65,0.00,,,0.00,Wunderground v.1.15,2013-03-26 23:50:00,
2013-03-26 20:00:00,41.4,30.1,29.93,WNW,295,0.0,1.0,64,0.00,,,0.00,Wunderground v.1.15,2013-03-27 00:00:00,
2013-03-26 20:10:00,40.6,30.9,29.93,SSE,163,1.0,1.0,68,0.00,,,0.00,Wunderground v.1.15,2013-03-27 00:10:00,
2013-03-26 20:15:00,40.1,30.7,29.94,SSE,153,1.0,2.0,69,0.00,,,0.00,Wunderground v.1.15,2013-03-27 00:15:00,
2013-03-26 20:25:00,39.1,31.2,29.94,SW,233,2.0,2.0,73,0.00,,,0.00,Wunderground v.1.15,2013-03-27 00:25:00,
2013-03-26 20:35:00,38.3,31.4,29.95,SSW,212,1.0,2.0,76,0.00,,,0.00,Wunderground v.1.15,2013-03-27 00:35:00,
2013-03-26 20:40:00,37.7,31.5,29.96,SSW,200,2.0,3.0,78,0.00,,,0.00,Wunderground v.1.15,2013-03-27 00:40:00,
2013-03-26 20:50:00,36.8,31.5,29.96,WSW,240,2.0,2.0,81,0.00,,,0.00,Wunderground v.1.15,2013-03-27 00:50:00,
2013-03-26 20:55:00,36.5,31.5,29.96,South,181,2.0,2.0,82,0.00,,,0.00,Wunderground v.1.15,2013-03-27 00:55:00,
2013-03-26 21:05:00,36.3,31.6,29.96,SW,231,1.0,1.0,83,0.00,,,0.00,Wunderground v.1.15,2013-03-27 01:05:00,
2013-03-26 21:15:00,36.0,31.6,29.97,WSW,242,1.0,1.0,84,0.00,,,0.00,Wunderground v.1.15,2013-03-27 01:15:00,
2013-03-26 21:25:00,35.8,31.7,29.97,SSE,161,0.0,1.0,85,0.00,,,0.00,Wunderground v.1.15,2013-03-27 01:25:00,
2013-03-26 21:30:00,35.8,31.7,29.97,SW,232,1.0,1.0,85,0.00,,,0.00,Wunderground v.1.15,2013-03-27 01:30:00,
2013-03-26 21:40:00,35.5,31.4,29.97,SSE,163,0.0,0.0,85,0.00,,,0.00,Wunderground v.1.15,2013-03-27 01:40:00,
2013-03-26 21:45:00,35.3,31.5,29.97,SW,224,0.0,0.0,86,0.00,,,0.00,Wunderground v.1.15,2013-03-27 01:45:00,
2013-03-26 21:55:00,35.0,31.2,29.97,SW,232,0.0,1.0,86,0.00,,,0.00,Wunderground v.1.15,2013-03-27 01:55:00,
2013-03-26 22:05:00,34.7,31.2,29.97,SSE,163,0.0,1.0,87,0.00,,,0.00,Wunderground v.1.15,2013-03-27 02:05:00,
2013-03-26 22:10:00,34.6,31.1,29.97,South,189,0.0,0.0,87,0.00,,,0.00,Wunderground v.1.15,2013-03-27 02:10:00,
2013-03-26 22:20:00,34.4,30.9,29.97,SSW,212,0.0,0.0,87,0.00,,,0.00,Wunderground v.1.15,2013-03-27 02:20:00,
2013-03-26 22:30:00,34.1,30.6,29.97,SSW,212,0.0,0.0,87,0.00,,,0.00,Wunderground v.1.15,2013-03-27 02:30:00,
2013-03-26 22:35:00,34.1,30.9,29.97,SW,232,0.0,0.0,88,0.00,,,0.00,Wunderground v.1.15,2013-03-27 02:35:00,
2013-03-26 22:40:00,34.0,30.8,29.97,SW,215,0.0,0.0,88,0.00,,,0.00,Wunderground v.1.15,2013-03-27 02:40:00,
2013-03-26 22:50:00,34.0,30.5,29.97,SW,235,0.0,1.0,87,0.00,,,0.00,Wunderground v.1.15,2013-03-27 02:50:00,
2013-03-26 22:55:00,33.9,30.2,29.97,WSW,244,0.0,1.0,86,0.00,,,0.00,Wunderground v.1.15,2013-03-27 02:55:00,
2013-03-26 23:01:00,33.9,30.2,29.97,SW,215,0.0,0.0,86,0.00,,,0.00,Wunderground v.1.15,2013-03-27 03:01:00,
2013-03-26 23:10:00,33.4,29.7,29.97,SW,214,0.0,0.0,86,0.00,,,0.00,Wunderground v.1.15,2013-03-27 03:10:00,
2013-03-26 23:15:00,33.3,29.8,29.97,SW,217,0.0,0.0,87,0.00,,,0.00,Wunderground v.1.15,2013-03-27 03:15:00,
2013-03-26 23:25:00,32.9,29.5,29.97,SSW,211,0.0,0.0,87,0.00,,,0.00,Wunderground v.1.15,2013-03-27 03:25:00,
2013-03-26 23:35:00,32.2,28.8,29.97,SSW,211,0.0,0.0,87,0.00,,,0.00,Wunderground v.1.15,2013-03-27 03:35:00,
2013-03-26 23:40:00,32.0,28.8,29.97,SSW,211,0.0,0.0,88,0.00,,,0.00,Wunderground v.1.15,2013-03-27 03:40:00,
2013-03-26 23:50:00,31.6,28.5,29.98,SSW,211,0.0,0.0,88,0.00,,,0.00,Wunderground v.1.15,2013-03-27 03:50:00,